Location: Bennemühlen
(52.5740°N, 9.7135°E)
Time: 03:07:03
(UTC+00:00)

A-11 Canister half - Pass Details

Date: 26 February 2026
Orbit: 1512 x 1687 km, 47.2° (Epoch: 7 March)

Event Time Altitude Azimuth Distance (km) Brightness Sun altitude
Rises 17:23:37 0° 210° (SSW) 4,918 12.2 -5.2°
Reaches altitude 10° 17:27:08 10° 202° (SSW) 3,941 11.6 -5.7°
Maximum altitude 17:35:52 35° 142° (SE) 2,505 9.9 -7.0°
Drops below altitude 10° 17:44:33 10° 83° (E) 3,927 10.4 -8.4°
Enters shadow 17:44:45 - 82° (E) 3,981 10.5 -8.4°
Sets 17:48:02 0° 74° (ENE) 4,899 - -8.9°
